Year,Month,Day,Hour,Minute,Value (Times are PST for temperature in C)
2021,04,19,00,00,11.10
2021,04,19,00,01,11.10
2021,04,19,00,02,11.10
2021,04,19,00,03,11.00
2021,04,19,00,04,11.00
2021,04,19,00,05,10.90
2021,04,19,00,06,10.90
2021,04,19,00,07,10.90
2021,04,19,00,08,10.90
2021,04,19,00,09,10.80
2021,04,19,00,10,10.80
2021,04,19,00,11,10.80
2021,04,19,00,12,10.70
2021,04,19,00,13,10.70
2021,04,19,00,14,10.70
2021,04,19,00,15,10.70
2021,04,19,00,16,10.60
2021,04,19,00,17,10.60
2021,04,19,00,18,10.60
2021,04,19,00,19,10.60
2021,04,19,00,20,10.50
2021,04,19,00,21,10.50
2021,04,19,00,22,10.50
2021,04,19,00,23,10.40
2021,04,19,00,24,10.40
2021,04,19,00,25,10.40
2021,04,19,00,26,10.30
2021,04,19,00,27,10.30
2021,04,19,00,28,10.30
2021,04,19,00,29,10.30
2021,04,19,00,30,10.20
2021,04,19,00,31,10.20
2021,04,19,00,32,10.20
2021,04,19,00,33,10.10
2021,04,19,00,34,10.10
2021,04,19,00,35,10.10
2021,04,19,00,36,10.10
2021,04,19,00,37,10.00
2021,04,19,00,38,10.00
2021,04,19,00,39,10.00
2021,04,19,00,40,9.90
2021,04,19,00,41,9.90
2021,04,19,00,42,9.90
2021,04,19,00,43,9.90
2021,04,19,00,44,9.80
2021,04,19,00,45,9.80
2021,04,19,00,46,9.80
2021,04,19,00,47,9.80
2021,04,19,00,48,9.80
2021,04,19,00,49,9.80
2021,04,19,00,50,9.70
2021,04,19,00,51,9.70
2021,04,19,00,52,9.70
2021,04,19,00,53,9.70
2021,04,19,00,54,9.60
2021,04,19,00,55,9.60
2021,04,19,00,56,9.60
2021,04,19,00,57,9.60
2021,04,19,00,58,9.60
2021,04,19,00,59,9.50
2021,04,19,01,00,9.50
2021,04,19,01,01,9.50
2021,04,19,01,02,9.50
2021,04,19,01,03,9.40
2021,04,19,01,04,9.40
2021,04,19,01,05,9.40
2021,04,19,01,06,9.40
2021,04,19,01,07,9.40
2021,04,19,01,08,9.30
2021,04,19,01,09,9.30
2021,04,19,01,10,9.30
2021,04,19,01,11,9.30
2021,04,19,01,12,9.30
2021,04,19,01,13,9.20
2021,04,19,01,14,9.20
2021,04,19,01,15,9.20
2021,04,19,01,16,9.20
2021,04,19,01,17,9.20
2021,04,19,01,18,9.20
2021,04,19,01,19,9.10
2021,04,19,01,20,9.10
2021,04,19,01,21,9.10
2021,04,19,01,22,9.10
2021,04,19,01,23,9.10
2021,04,19,01,24,9.10
2021,04,19,01,25,9.10
2021,04,19,01,26,9.10
2021,04,19,01,27,9.00
2021,04,19,01,28,9.00
2021,04,19,01,29,9.00
2021,04,19,01,30,9.00
2021,04,19,01,31,9.00
2021,04,19,01,32,8.90
2021,04,19,01,33,8.90
2021,04,19,01,34,8.90
2021,04,19,01,35,8.90
2021,04,19,01,36,8.90
2021,04,19,01,37,8.90
2021,04,19,01,38,8.90
2021,04,19,01,39,8.90
2021,04,19,01,40,8.90
2021,04,19,01,41,8.90
2021,04,19,01,42,8.90
2021,04,19,01,43,8.80
2021,04,19,01,44,8.80
2021,04,19,01,45,8.80
2021,04,19,01,46,8.80
2021,04,19,01,47,8.80
2021,04,19,01,48,8.80
2021,04,19,01,49,8.90
2021,04,19,01,50,8.90
2021,04,19,01,51,8.90
2021,04,19,01,52,8.90
2021,04,19,01,53,8.90
2021,04,19,01,54,9.00
2021,04,19,01,55,9.10
2021,04,19,01,56,9.10
2021,04,19,01,57,9.20
2021,04,19,01,58,9.20
2021,04,19,01,59,9.30
2021,04,19,02,00,9.40
2021,04,19,02,01,9.50
2021,04,19,02,02,9.60
2021,04,19,02,03,9.70
2021,04,19,02,04,9.90
2021,04,19,02,05,10.00
2021,04,19,02,06,10.10
2021,04,19,02,07,10.30
2021,04,19,02,08,10.40
2021,04,19,02,09,10.50
2021,04,19,02,10,10.60
2021,04,19,02,11,10.80
2021,04,19,02,12,10.90
2021,04,19,02,13,11.00
2021,04,19,02,14,11.20
2021,04,19,02,15,11.30
2021,04,19,02,16,11.40
2021,04,19,02,17,11.50
2021,04,19,02,18,11.70
2021,04,19,02,19,11.80
2021,04,19,02,20,11.90
2021,04,19,02,21,12.10
2021,04,19,02,22,12.20
2021,04,19,02,23,12.30
2021,04,19,02,24,12.40
2021,04,19,02,25,12.50
2021,04,19,02,26,12.60
2021,04,19,02,27,12.70
2021,04,19,02,28,12.80
2021,04,19,02,29,12.80
2021,04,19,02,30,12.90
2021,04,19,02,31,12.90
2021,04,19,02,32,12.90
2021,04,19,02,33,13.00
2021,04,19,02,34,13.00
2021,04,19,02,35,13.10
2021,04,19,02,36,13.10
2021,04,19,02,37,13.10
2021,04,19,02,38,13.20
2021,04,19,02,39,13.20
2021,04,19,02,40,13.20
2021,04,19,02,41,13.20
2021,04,19,02,42,13.20
2021,04,19,02,43,13.20
2021,04,19,02,44,13.30
2021,04,19,02,45,13.30
2021,04,19,02,46,13.30
2021,04,19,02,47,13.30
2021,04,19,02,48,13.40
2021,04,19,02,49,13.40
2021,04,19,02,50,13.40
2021,04,19,02,51,13.40
2021,04,19,02,52,13.40
2021,04,19,02,53,13.40
2021,04,19,02,54,13.50
2021,04,19,02,55,13.50
2021,04,19,02,56,13.50
2021,04,19,02,57,13.50
2021,04,19,02,58,13.50
2021,04,19,02,59,13.50
2021,04,19,03,00,13.40
2021,04,19,03,01,13.40
2021,04,19,03,02,13.40
2021,04,19,03,03,13.40
2021,04,19,03,04,13.40
2021,04,19,03,05,13.40
2021,04,19,03,06,13.40
2021,04,19,03,07,13.50
2021,04,19,03,08,13.50
2021,04,19,03,09,13.50
2021,04,19,03,10,13.50
2021,04,19,03,11,13.50
2021,04,19,03,12,13.50
2021,04,19,03,13,13.50
2021,04,19,03,14,13.40
2021,04,19,03,15,13.40
2021,04,19,03,16,13.40
2021,04,19,03,17,13.40
2021,04,19,03,18,13.40
2021,04,19,03,19,13.40
2021,04,19,03,20,13.30
2021,04,19,03,21,13.30
2021,04,19,03,22,13.30
2021,04,19,03,23,13.20
2021,04,19,03,24,13.20
2021,04,19,03,25,13.20
2021,04,19,03,26,13.10
2021,04,19,03,27,13.10
2021,04,19,03,28,13.00
2021,04,19,03,29,13.00
2021,04,19,03,30,12.90
2021,04,19,03,31,12.90
2021,04,19,03,32,12.80
2021,04,19,03,33,12.80
2021,04,19,03,34,12.80
2021,04,19,03,35,12.70
2021,04,19,03,36,12.70
2021,04,19,03,37,12.60
2021,04,19,03,38,12.60
2021,04,19,03,39,12.60
2021,04,19,03,40,12.50
2021,04,19,03,41,12.50
2021,04,19,03,42,12.40
2021,04,19,03,43,12.40
2021,04,19,03,44,12.40
2021,04,19,03,45,12.40
2021,04,19,03,46,12.40
2021,04,19,03,47,12.30
2021,04,19,03,48,12.30
2021,04,19,03,49,12.30
2021,04,19,03,50,12.30
2021,04,19,03,51,12.20
2021,04,19,03,52,12.20
2021,04,19,03,53,12.20
2021,04,19,03,54,12.20
2021,04,19,03,55,12.10
2021,04,19,03,56,12.10
2021,04,19,03,57,12.10
2021,04,19,03,58,12.10
2021,04,19,03,59,12.10
2021,04,19,04,00,12.00
2021,04,19,04,01,12.10
2021,04,19,04,02,12.00
2021,04,19,04,03,12.00
2021,04,19,04,04,12.00
2021,04,19,04,05,12.00
2021,04,19,04,06,12.00
2021,04,19,04,07,12.00
2021,04,19,04,08,12.00
2021,04,19,04,09,12.00
2021,04,19,04,10,12.00
2021,04,19,04,11,12.00
2021,04,19,04,12,11.90
2021,04,19,04,13,11.90
2021,04,19,04,14,11.90
2021,04,19,04,15,11.90
2021,04,19,04,16,11.90
2021,04,19,04,17,11.90
2021,04,19,04,18,11.90
2021,04,19,04,19,11.90
2021,04,19,04,20,11.90
2021,04,19,04,21,11.90
2021,04,19,04,22,11.80
2021,04,19,04,23,11.80
2021,04,19,04,24,11.80
2021,04,19,04,25,11.80
2021,04,19,04,26,11.80
2021,04,19,04,27,11.80
2021,04,19,04,28,11.80
2021,04,19,04,29,11.80
2021,04,19,04,30,11.80
2021,04,19,04,31,11.80
2021,04,19,04,32,11.80
2021,04,19,04,33,11.80
2021,04,19,04,34,11.80
2021,04,19,04,35,11.80
2021,04,19,04,36,11.80
2021,04,19,04,37,11.80
2021,04,19,04,38,11.80
2021,04,19,04,39,11.80
2021,04,19,04,40,11.80
2021,04,19,04,41,11.90
2021,04,19,04,42,11.90
2021,04,19,04,43,11.90
2021,04,19,04,44,11.90
2021,04,19,04,45,11.90
2021,04,19,04,46,12.00
2021,04,19,04,47,12.00
2021,04,19,04,48,12.00
2021,04,19,04,49,12.00
2021,04,19,04,50,12.00
2021,04,19,04,51,12.00
2021,04,19,04,52,12.00
2021,04,19,04,53,12.00
2021,04,19,04,54,12.00
2021,04,19,04,55,12.00
2021,04,19,04,56,11.90
2021,04,19,04,57,11.90
2021,04,19,04,58,11.90
2021,04,19,04,59,11.90
2021,04,19,05,00,11.90
2021,04,19,05,01,12.00
2021,04,19,05,02,12.00
2021,04,19,05,03,12.00
2021,04,19,05,04,12.00
2021,04,19,05,05,12.10
2021,04,19,05,06,12.10
2021,04,19,05,07,12.10
2021,04,19,05,08,12.10
2021,04,19,05,09,12.10
2021,04,19,05,10,12.10
2021,04,19,05,11,12.10
2021,04,19,05,12,12.00
2021,04,19,05,13,12.00
2021,04,19,05,14,12.00
2021,04,19,05,15,12.00
2021,04,19,05,16,12.00
2021,04,19,05,17,12.00
2021,04,19,05,18,12.00
2021,04,19,05,19,12.00
2021,04,19,05,20,11.90
2021,04,19,05,21,11.90
2021,04,19,05,22,11.90
2021,04,19,05,23,11.90
2021,04,19,05,24,11.90
2021,04,19,05,25,11.90
2021,04,19,05,26,11.90
2021,04,19,05,27,11.90
2021,04,19,05,28,11.90
2021,04,19,05,29,11.90
2021,04,19,05,30,11.90
2021,04,19,05,31,11.90
2021,04,19,05,32,11.90
2021,04,19,05,33,11.90
2021,04,19,05,34,11.90
2021,04,19,05,35,11.80
2021,04,19,05,36,11.80
2021,04,19,05,37,11.80
2021,04,19,05,38,11.80
2021,04,19,05,39,11.80
2021,04,19,05,40,11.70
2021,04,19,05,41,11.70
2021,04,19,05,42,11.70
2021,04,19,05,43,11.60
2021,04,19,05,44,11.60
2021,04,19,05,45,11.50
2021,04,19,05,46,11.50
2021,04,19,05,47,11.40
2021,04,19,05,48,11.40
2021,04,19,05,49,11.30
2021,04,19,05,50,11.30
2021,04,19,05,51,11.30
2021,04,19,05,52,11.20
2021,04,19,05,53,11.20
2021,04,19,05,54,11.10
2021,04,19,05,55,11.10
2021,04,19,05,56,11.10
2021,04,19,05,57,11.00
2021,04,19,05,58,10.90
2021,04,19,05,59,10.90
2021,04,19,06,00,10.90
2021,04,19,06,01,10.80
2021,04,19,06,02,10.80
2021,04,19,06,03,10.80
2021,04,19,06,04,10.70
2021,04,19,06,05,10.70
2021,04,19,06,06,10.70
2021,04,19,06,07,10.60
2021,04,19,06,08,10.60
2021,04,19,06,09,10.60
2021,04,19,06,10,10.60
2021,04,19,06,11,10.50
2021,04,19,06,12,10.50
2021,04,19,06,13,10.50
2021,04,19,06,14,10.40
2021,04,19,06,15,10.40
2021,04,19,06,16,10.40
2021,04,19,06,17,10.40
2021,04,19,06,18,10.30
2021,04,19,06,19,10.30
2021,04,19,06,20,10.30
2021,04,19,06,21,10.20
2021,04,19,06,22,10.20
2021,04,19,06,23,10.20
2021,04,19,06,24,10.10
2021,04,19,06,25,10.10
2021,04,19,06,26,10.00
2021,04,19,06,27,10.00
2021,04,19,06,28,10.00
2021,04,19,06,29,9.90
2021,04,19,06,30,9.90
2021,04,19,06,31,9.80
2021,04,19,06,32,9.80
2021,04,19,06,33,9.80
2021,04,19,06,34,9.70
2021,04,19,06,35,9.70
2021,04,19,06,36,9.70
2021,04,19,06,37,9.60
2021,04,19,06,38,9.60
2021,04,19,06,39,9.60
2021,04,19,06,40,9.50
2021,04,19,06,41,9.50
2021,04,19,06,42,9.50
2021,04,19,06,43,9.50
2021,04,19,06,44,9.40
2021,04,19,06,45,9.40
2021,04,19,06,46,9.40
2021,04,19,06,47,9.40
2021,04,19,06,48,9.40
2021,04,19,06,49,9.40
2021,04,19,06,50,9.40
2021,04,19,06,51,9.40
2021,04,19,06,52,9.40
2021,04,19,06,53,9.40
2021,04,19,06,54,9.40
2021,04,19,06,55,9.40
2021,04,19,06,56,9.40
2021,04,19,06,57,9.50
2021,04,19,06,58,9.50
2021,04,19,06,59,9.50
2021,04,19,07,00,9.50
2021,04,19,07,01,9.50
2021,04,19,07,02,9.50
2021,04,19,07,03,9.50
2021,04,19,07,04,9.50
2021,04,19,07,05,9.60
2021,04,19,07,06,9.60
2021,04,19,07,07,9.60
2021,04,19,07,08,9.60
2021,04,19,07,09,9.60
2021,04,19,07,10,9.60
2021,04,19,07,11,9.60
2021,04,19,07,12,9.60
2021,04,19,07,13,9.60
2021,04,19,07,14,9.70
2021,04,19,07,15,9.70
2021,04,19,07,16,9.70
2021,04,19,07,17,9.80
2021,04,19,07,18,9.80
2021,04,19,07,19,9.80
2021,04,19,07,20,9.80
2021,04,19,07,21,9.90
2021,04,19,07,22,9.90
2021,04,19,07,23,9.90
2021,04,19,07,24,9.90
2021,04,19,07,25,9.90
2021,04,19,07,26,10.00
2021,04,19,07,27,10.00
2021,04,19,07,28,10.10
2021,04,19,07,29,10.10
2021,04,19,07,30,10.10
2021,04,19,07,31,10.20
2021,04,19,07,32,10.20
2021,04,19,07,33,10.20
2021,04,19,07,34,10.30
2021,04,19,07,35,10.30
2021,04,19,07,36,10.30
2021,04,19,07,37,10.30
2021,04,19,07,38,10.40
2021,04,19,07,39,10.40
2021,04,19,07,40,10.40
2021,04,19,07,41,10.50
2021,04,19,07,42,10.50
2021,04,19,07,43,10.60
2021,04,19,07,44,10.60
2021,04,19,07,45,10.60
2021,04,19,07,46,10.70
2021,04,19,07,47,10.70
2021,04,19,07,48,10.80
2021,04,19,07,49,10.80
2021,04,19,07,50,10.90
2021,04,19,07,51,11.00
2021,04,19,07,52,11.00
2021,04,19,07,53,11.00
2021,04,19,07,54,11.10
2021,04,19,07,55,11.10
2021,04,19,07,56,11.10
2021,04,19,07,57,11.10
2021,04,19,07,58,11.20
2021,04,19,07,59,11.20
2021,04,19,08,00,11.20
2021,04,19,08,01,11.20
2021,04,19,08,02,11.30
2021,04,19,08,03,11.30
2021,04,19,08,04,11.30
2021,04,19,08,05,11.30
2021,04,19,08,06,11.30
2021,04,19,08,07,11.30
2021,04,19,08,08,11.40
2021,04,19,08,09,11.40
2021,04,19,08,10,11.40
2021,04,19,08,11,11.40
2021,04,19,08,12,11.50
2021,04,19,08,13,11.50
2021,04,19,08,14,11.50
2021,04,19,08,15,11.60
2021,04,19,08,16,11.60
2021,04,19,08,17,11.60
2021,04,19,08,18,11.60
2021,04,19,08,19,11.70
2021,04,19,08,20,11.70
2021,04,19,08,21,11.80
2021,04,19,08,22,11.80
2021,04,19,08,23,11.90
2021,04,19,08,24,11.90
2021,04,19,08,25,12.00
2021,04,19,08,26,12.10
2021,04,19,08,27,12.20
2021,04,19,08,28,12.30
2021,04,19,08,29,12.40
2021,04,19,08,30,12.50
2021,04,19,08,31,12.70
2021,04,19,08,32,12.80
2021,04,19,08,33,12.90
2021,04,19,08,34,13.10
2021,04,19,08,35,13.20
2021,04,19,08,36,13.30
2021,04,19,08,37,13.40
2021,04,19,08,38,13.60
2021,04,19,08,39,13.70
2021,04,19,08,40,13.90
2021,04,19,08,41,14.00
2021,04,19,08,42,14.10
2021,04,19,08,43,14.30
2021,04,19,08,44,14.40
2021,04,19,08,45,14.50
2021,04,19,08,46,14.60
2021,04,19,08,47,14.70
2021,04,19,08,48,14.80
2021,04,19,08,49,14.80
2021,04,19,08,50,14.90
2021,04,19,08,51,14.90
2021,04,19,08,52,15.00
2021,04,19,08,53,15.10
2021,04,19,08,54,15.10
2021,04,19,08,55,15.20
2021,04,19,08,56,15.20
2021,04,19,08,57,15.30
2021,04,19,08,58,15.30
2021,04,19,08,59,15.30
2021,04,19,09,00,15.40
2021,04,19,09,01,15.40
2021,04,19,09,02,15.40
2021,04,19,09,03,15.50
2021,04,19,09,04,15.50
2021,04,19,09,05,15.50
2021,04,19,09,06,15.50
2021,04,19,09,07,15.60
2021,04,19,09,08,15.60
2021,04,19,09,09,15.60
2021,04,19,09,10,15.60
2021,04,19,09,11,15.60
2021,04,19,09,12,15.70
2021,04,19,09,13,15.70
2021,04,19,09,14,15.70
2021,04,19,09,15,15.70
2021,04,19,09,16,15.70
2021,04,19,09,17,15.70
2021,04,19,09,18,15.70
2021,04,19,09,19,15.70
2021,04,19,09,20,15.70
2021,04,19,09,21,15.70
2021,04,19,09,22,15.70
2021,04,19,09,23,15.80
2021,04,19,09,24,15.80
2021,04,19,09,25,15.80
2021,04,19,09,26,15.80
2021,04,19,09,27,15.80
2021,04,19,09,28,15.80
2021,04,19,09,29,15.80
2021,04,19,09,30,15.90
2021,04,19,09,31,15.90
2021,04,19,09,32,15.90
2021,04,19,09,33,15.90
2021,04,19,09,34,16.00
2021,04,19,09,35,15.90
2021,04,19,09,36,15.90
2021,04,19,09,37,15.90
2021,04,19,09,38,15.90
2021,04,19,09,39,15.90
2021,04,19,09,40,15.90
2021,04,19,09,41,15.90
2021,04,19,09,42,15.90
2021,04,19,09,43,16.00
2021,04,19,09,44,16.00
2021,04,19,09,45,16.00
2021,04,19,09,46,16.00
2021,04,19,09,47,16.00
2021,04,19,09,48,16.00
2021,04,19,09,49,16.00
2021,04,19,09,50,16.10
2021,04,19,09,51,16.10
2021,04,19,09,52,16.10
2021,04,19,09,53,16.20
2021,04,19,09,54,16.20
2021,04,19,09,55,16.30
2021,04,19,09,56,16.30
2021,04,19,09,57,16.40
2021,04,19,09,58,16.40
2021,04,19,09,59,16.50
2021,04,19,10,00,16.60
2021,04,19,10,01,16.60
2021,04,19,10,02,16.60
2021,04,19,10,03,16.60
2021,04,19,10,04,16.70
2021,04,19,10,05,16.70
2021,04,19,10,06,16.70
2021,04,19,10,07,16.80
2021,04,19,10,08,16.80
2021,04,19,10,09,16.80
2021,04,19,10,10,16.80
2021,04,19,10,11,16.90
2021,04,19,10,12,16.90
2021,04,19,10,13,16.90
2021,04,19,10,14,17.00
2021,04,19,10,15,17.00
2021,04,19,10,16,17.10
2021,04,19,10,17,17.00
2021,04,19,10,18,17.00
2021,04,19,10,19,16.90
2021,04,19,10,20,16.90
2021,04,19,10,21,16.90
2021,04,19,10,22,17.00
2021,04,19,10,23,17.00
2021,04,19,10,24,17.00
2021,04,19,10,25,17.10
2021,04,19,10,26,17.10
2021,04,19,10,27,17.20
2021,04,19,10,28,17.20
2021,04,19,10,29,17.20
2021,04,19,10,30,17.20
2021,04,19,10,31,17.30
2021,04,19,10,32,17.30
2021,04,19,10,33,17.30
2021,04,19,10,34,17.40
2021,04,19,10,35,17.40
2021,04,19,10,36,17.50
2021,04,19,10,37,17.50
2021,04,19,10,38,17.50
2021,04,19,10,39,17.50
2021,04,19,10,40,17.60
2021,04,19,10,41,17.50
2021,04,19,10,42,17.60
2021,04,19,10,43,17.60
2021,04,19,10,44,17.60
2021,04,19,10,45,17.60
2021,04,19,10,46,17.60
2021,04,19,10,47,17.60
2021,04,19,10,48,17.60
2021,04,19,10,49,17.60
2021,04,19,10,50,17.60
2021,04,19,10,51,17.60
2021,04,19,10,52,17.60
2021,04,19,10,53,17.70
2021,04,19,10,54,17.70
2021,04,19,10,55,17.70
2021,04,19,10,56,17.70
2021,04,19,10,57,17.80
2021,04,19,10,58,17.80
2021,04,19,10,59,17.70
2021,04,19,11,00,17.70
2021,04,19,11,01,17.70
2021,04,19,11,02,17.70
2021,04,19,11,03,17.70
2021,04,19,11,04,17.70
2021,04,19,11,05,17.70
2021,04,19,11,06,17.70
2021,04,19,11,07,17.70
2021,04,19,11,08,17.80
2021,04,19,11,09,17.80
2021,04,19,11,10,17.80
2021,04,19,11,11,17.80
2021,04,19,11,12,17.90
2021,04,19,11,13,17.90
2021,04,19,11,14,17.90
2021,04,19,11,15,18.00
2021,04,19,11,16,18.00
2021,04,19,11,17,18.10
2021,04,19,11,18,18.10
2021,04,19,11,19,18.10
2021,04,19,11,20,18.10
2021,04,19,11,21,18.20
2021,04,19,11,22,18.20
2021,04,19,11,23,18.20
2021,04,19,11,24,18.20
2021,04,19,11,25,18.30
2021,04,19,11,26,18.40
2021,04,19,11,27,18.50
2021,04,19,11,28,18.60
2021,04,19,11,29,18.60
2021,04,19,11,30,18.70
2021,04,19,11,31,18.80
2021,04,19,11,32,18.90
2021,04,19,11,33,19.00
2021,04,19,11,34,19.00
2021,04,19,11,35,19.10
2021,04,19,11,36,19.10
2021,04,19,11,37,19.10
2021,04,19,11,38,19.10
2021,04,19,11,39,19.10
2021,04,19,11,40,19.10
2021,04,19,11,41,19.10
2021,04,19,11,42,19.20
2021,04,19,11,43,19.20
2021,04,19,11,44,19.10
2021,04,19,11,45,19.10
2021,04,19,11,46,19.10
2021,04,19,11,47,19.10
2021,04,19,11,48,19.10
2021,04,19,11,49,19.10
2021,04,19,11,50,19.10
2021,04,19,11,51,19.20
2021,04,19,11,52,19.20
2021,04,19,11,53,19.20
2021,04,19,11,54,19.20
2021,04,19,11,55,19.20
2021,04,19,11,56,19.30
2021,04,19,11,57,19.30
2021,04,19,11,58,19.40
2021,04,19,11,59,19.40
2021,04,19,12,00,19.40
2021,04,19,12,01,19.40
2021,04,19,12,02,19.50
2021,04,19,12,03,19.50
2021,04,19,12,04,19.60
2021,04,19,12,05,19.60
2021,04,19,12,06,19.60
2021,04,19,12,07,19.70
2021,04,19,12,08,19.70
2021,04,19,12,09,19.70
2021,04,19,12,10,19.70
2021,04,19,12,11,19.70
2021,04,19,12,12,19.70
2021,04,19,12,13,19.80
2021,04,19,12,14,19.70
2021,04,19,12,15,19.70
2021,04,19,12,16,19.70
2021,04,19,12,17,19.70
2021,04,19,12,18,19.70
2021,04,19,12,19,19.60
2021,04,19,12,20,19.60
2021,04,19,12,21,19.70
2021,04,19,12,22,19.70
2021,04,19,12,23,19.70
2021,04,19,12,24,19.80
2021,04,19,12,25,19.80
2021,04,19,12,26,19.80
2021,04,19,12,27,19.80
2021,04,19,12,28,19.80
2021,04,19,12,29,19.80
2021,04,19,12,30,19.80
2021,04,19,12,31,19.80
2021,04,19,12,32,19.80
2021,04,19,12,33,19.80
2021,04,19,12,34,19.70
2021,04,19,12,35,19.80
2021,04,19,12,36,19.80
2021,04,19,12,37,19.80
2021,04,19,12,38,19.80
2021,04,19,12,39,19.80
2021,04,19,12,40,19.80
2021,04,19,12,41,19.70
2021,04,19,12,42,19.70
2021,04,19,12,43,19.70
2021,04,19,12,44,19.80
2021,04,19,12,45,19.80
2021,04,19,12,46,19.80
2021,04,19,12,47,19.80
2021,04,19,12,48,19.90
2021,04,19,12,49,19.90
2021,04,19,12,50,20.00
2021,04,19,12,51,20.00
2021,04,19,12,52,20.00
2021,04,19,12,53,20.00
2021,04,19,12,54,20.00
2021,04,19,12,55,20.00
2021,04,19,12,56,20.00
2021,04,19,12,57,20.00
2021,04,19,12,58,20.00
2021,04,19,12,59,20.00
2021,04,19,13,00,20.00
2021,04,19,13,01,20.00
2021,04,19,13,02,19.90
2021,04,19,13,03,19.90
2021,04,19,13,04,20.00
2021,04,19,13,05,20.00
2021,04,19,13,06,20.00
2021,04,19,13,07,20.10
2021,04,19,13,08,20.10
2021,04,19,13,09,20.10
2021,04,19,13,10,20.10
2021,04,19,13,11,20.10
2021,04,19,13,12,20.10
2021,04,19,13,13,20.20
2021,04,19,13,14,20.20
2021,04,19,13,15,20.20
2021,04,19,13,16,20.30
2021,04,19,13,17,20.30
2021,04,19,13,18,20.30
2021,04,19,13,19,20.30
2021,04,19,13,20,20.40
2021,04,19,13,21,20.40
2021,04,19,13,22,20.50
2021,04,19,13,23,20.60
2021,04,19,13,24,20.60
2021,04,19,13,25,20.60
2021,04,19,13,26,20.60
2021,04,19,13,27,20.60
2021,04,19,13,28,20.60
2021,04,19,13,29,20.60
2021,04,19,13,30,20.60
2021,04,19,13,31,20.50
2021,04,19,13,32,20.50
2021,04,19,13,33,20.50
2021,04,19,13,34,20.60
2021,04,19,13,35,20.60
2021,04,19,13,36,20.60
2021,04,19,13,37,20.60
2021,04,19,13,38,20.70
2021,04,19,13,39,20.70
2021,04,19,13,40,20.70
2021,04,19,13,41,20.70
2021,04,19,13,42,20.70
2021,04,19,13,43,20.70
2021,04,19,13,44,20.70
2021,04,19,13,45,20.70
2021,04,19,13,46,20.70
2021,04,19,13,47,20.80
2021,04,19,13,48,20.70
2021,04,19,13,49,20.70
2021,04,19,13,50,20.70
2021,04,19,13,51,20.70
2021,04,19,13,52,20.80
2021,04,19,13,53,20.80
2021,04,19,13,54,20.80
2021,04,19,13,55,20.90
2021,04,19,13,56,20.90
2021,04,19,13,57,20.90
2021,04,19,13,58,21.00
2021,04,19,13,59,21.00
2021,04,19,14,00,21.10
2021,04,19,14,01,21.10
2021,04,19,14,02,21.10
2021,04,19,14,03,21.20
2021,04,19,14,04,21.20
2021,04,19,14,05,21.20
2021,04,19,14,06,21.20
2021,04,19,14,07,21.30
2021,04,19,14,08,21.20
2021,04,19,14,09,21.20
2021,04,19,14,10,21.10
2021,04,19,14,11,21.10
2021,04,19,14,12,21.00
2021,04,19,14,13,20.90
2021,04,19,14,14,20.90
2021,04,19,14,15,20.80
2021,04,19,14,16,20.80
2021,04,19,14,17,20.80
2021,04,19,14,18,20.70
2021,04,19,14,19,20.70
2021,04,19,14,20,20.70
2021,04,19,14,21,20.80
2021,04,19,14,22,20.80
2021,04,19,14,23,20.80
2021,04,19,14,24,20.80
2021,04,19,14,25,20.80
2021,04,19,14,26,20.80
2021,04,19,14,27,20.80
2021,04,19,14,28,20.90
2021,04,19,14,29,20.90
2021,04,19,14,30,20.90
2021,04,19,14,31,20.90
2021,04,19,14,32,20.90
2021,04,19,14,33,20.90
2021,04,19,14,34,20.90
2021,04,19,14,35,21.00
2021,04,19,14,36,21.10
2021,04,19,14,37,21.10
2021,04,19,14,38,21.10
2021,04,19,14,39,21.10
2021,04,19,14,40,21.10
2021,04,19,14,41,21.10
2021,04,19,14,42,21.10
2021,04,19,14,43,21.10
2021,04,19,14,44,21.20
2021,04,19,14,45,21.20
2021,04,19,14,46,21.20
2021,04,19,14,47,21.20
2021,04,19,14,48,21.30
2021,04,19,14,49,21.30
2021,04,19,14,50,21.30
2021,04,19,14,51,21.20
2021,04,19,14,52,21.20
2021,04,19,14,53,21.20
2021,04,19,14,54,21.30
2021,04,19,14,55,21.20
2021,04,19,14,56,21.20
2021,04,19,14,57,21.20
2021,04,19,14,58,21.20
2021,04,19,14,59,21.10
2021,04,19,15,00,21.10
2021,04,19,15,01,21.10
2021,04,19,15,02,21.20
2021,04,19,15,03,21.20
2021,04,19,15,04,21.20
2021,04,19,15,05,21.20
2021,04,19,15,06,21.20
2021,04,19,15,07,21.10
2021,04,19,15,08,21.10
2021,04,19,15,09,21.10
2021,04,19,15,10,21.10
2021,04,19,15,11,21.00
2021,04,19,15,12,21.00
2021,04,19,15,13,21.00
2021,04,19,15,14,20.90
2021,04,19,15,15,20.90
2021,04,19,15,16,20.90
2021,04,19,15,17,20.90
2021,04,19,15,18,20.90
2021,04,19,15,19,20.90
2021,04,19,15,20,20.90
2021,04,19,15,21,20.80
2021,04,19,15,22,20.80
2021,04,19,15,23,20.80
2021,04,19,15,24,20.70
2021,04,19,15,25,20.70
2021,04,19,15,26,20.60
2021,04,19,15,27,20.50
2021,04,19,15,28,20.50
2021,04,19,15,29,20.40
2021,04,19,15,30,20.40
2021,04,19,15,31,20.40
2021,04,19,15,32,20.50
2021,04,19,15,33,20.60
2021,04,19,15,34,20.70
2021,04,19,15,35,20.70
2021,04,19,15,36,20.70
2021,04,19,15,37,20.70
2021,04,19,15,38,20.70
2021,04,19,15,39,20.70
2021,04,19,15,40,20.70
2021,04,19,15,41,20.70
2021,04,19,15,42,20.70
2021,04,19,15,43,20.70
2021,04,19,15,44,20.70
2021,04,19,15,45,20.70
2021,04,19,15,46,20.80
2021,04,19,15,47,20.80
2021,04,19,15,48,20.80
2021,04,19,15,49,20.90
2021,04,19,15,50,20.90
2021,04,19,15,51,21.00
2021,04,19,15,52,21.00
2021,04,19,15,53,21.00
2021,04,19,15,54,21.00
2021,04,19,15,55,21.10
2021,04,19,15,56,21.10
2021,04,19,15,57,21.20
2021,04,19,15,58,21.20
2021,04,19,15,59,21.30
2021,04,19,16,00,21.30
2021,04,19,16,01,21.40
2021,04,19,16,02,21.40
2021,04,19,16,03,21.50
2021,04,19,16,04,21.50
2021,04,19,16,05,21.60
2021,04,19,16,06,21.60
2021,04,19,16,07,21.60
2021,04,19,16,08,21.70
2021,04,19,16,09,21.70
2021,04,19,16,10,21.70
2021,04,19,16,11,21.60
2021,04,19,16,12,21.60
2021,04,19,16,13,21.60
2021,04,19,16,14,21.60
2021,04,19,16,15,21.60
2021,04,19,16,16,21.60
2021,04,19,16,17,21.70
2021,04,19,16,18,21.70
2021,04,19,16,19,21.70
2021,04,19,16,20,21.80
2021,04,19,16,21,21.80
2021,04,19,16,22,21.80
2021,04,19,16,23,21.80
2021,04,19,16,24,21.80
2021,04,19,16,25,21.90
2021,04,19,16,26,21.90
2021,04,19,16,27,21.90
2021,04,19,16,28,21.90
2021,04,19,16,29,22.00
2021,04,19,16,30,22.00
2021,04,19,16,31,22.10
2021,04,19,16,32,22.10
2021,04,19,16,33,22.10
2021,04,19,16,34,22.10
2021,04,19,16,35,22.10
2021,04,19,16,36,22.20
2021,04,19,16,37,22.20
2021,04,19,16,38,22.30
2021,04,19,16,39,22.30
2021,04,19,16,40,22.30
2021,04,19,16,41,22.30
2021,04,19,16,42,22.30
2021,04,19,16,43,22.30
2021,04,19,16,44,22.30
2021,04,19,16,45,22.30
2021,04,19,16,46,22.30
2021,04,19,16,47,22.20
2021,04,19,16,48,22.20
2021,04,19,16,49,22.20
2021,04,19,16,50,22.20
2021,04,19,16,51,22.30
2021,04,19,16,52,22.30
2021,04,19,16,53,22.30
2021,04,19,16,54,22.40
2021,04,19,16,55,22.40
2021,04,19,16,56,22.40
2021,04,19,16,57,22.50
2021,04,19,16,58,22.40
2021,04,19,16,59,22.40
2021,04,19,17,00,22.40
2021,04,19,17,01,22.40
2021,04,19,17,02,22.40
2021,04,19,17,03,22.40
2021,04,19,17,04,22.40
2021,04,19,17,05,22.40
2021,04,19,17,06,22.40
2021,04,19,17,07,22.40
2021,04,19,17,08,22.30
2021,04,19,17,09,22.30
2021,04,19,17,10,22.30
2021,04,19,17,11,22.30
2021,04,19,17,12,22.20
2021,04,19,17,13,22.20
2021,04,19,17,14,22.20
2021,04,19,17,15,22.10
2021,04,19,17,16,22.10
2021,04,19,17,17,22.10
2021,04,19,17,18,22.00
2021,04,19,17,19,22.00
2021,04,19,17,20,22.00
2021,04,19,17,21,22.00
2021,04,19,17,22,22.00
2021,04,19,17,23,22.00
2021,04,19,17,24,22.00
2021,04,19,17,25,22.00